Location: ??????
(55.7522°N, 37.6156°E)
Time: 17:54:48
(UTC+00:00)

Cosmos 1953 - Pass Details

Date: 14 June 2025
Orbit: 485 x 500 km, 82.5° (Epoch: 12 July)

Event Time Altitude Azimuth Distance (km) Brightness Sun altitude
Rises 20:47:14 0° 336° (NNW) 2,604 7.6 -10.4°
Reaches altitude 10° 20:49:51 10° 317° (NW) 1,717 5.8 -10.5°
Maximum altitude 20:52:25 18° 274° (W) 1,303 4.4 -10.5°
Drops below altitude 10° 20:54:58 10° 231° (SW) 1,711 4.5 -10.6°
Enters shadow 20:56:07 - 221° (SW) 2,070 4.9 -10.6°
